Location: Sankt Anna
(58.3452°N, 16.7040°E)
Time: 10:55:28
(UTC+02:00)

DX 1 - Pass Details

Date: 30 May 2019
Orbit: 620 x 631 km, 98.4° (Epoch: 23 June)

Event Time Altitude Azimuth Distance (km) Brightness Sun altitude
Rises 01:23:03 0° 97° (E) 2,922 ? -9.7°
Reaches altitude 10° 01:26:22 10° 69° (ENE) 2,020 ? -9.6°
Maximum altitude 01:28:19 13° 43° (NE) 1,839 ? -9.6°
Drops below altitude 10° 01:30:15 10° 16° (NNE) 2,027 ? -9.5°
Sets 01:33:35 0° 349° (N) 2,941 ? -9.5°
